Nantucket, MA

8:52 AM EST on December 03, 2016 (GMT -0500)
Nantucket Memorial

Weather History for KACK - August, 2014

Change the Weather History Date:

Wednesday, August 20, 2014

  Actual Average Record
Temperature  
Mean Temperature 62 °F -  
Max Temperature 73 °F 74 °F 82 °F (2015)
Min Temperature 53 °F 58 °F 44 °F (1976)
Degree Days  
Heating Degree Days 2    
Growing Degree Days 12 (Base 50)    
Moisture  
Dew Point 57 °F    
Average Humidity 78    
Maximum Humidity 94    
Minimum Humidity 57    
Precipitation  
Precipitation 0.01 in - - ()
Sea Level Pressure  
Sea Level Pressure 30.01 in    
Wind  
Wind Speed 6 mph (NE)    
Max Wind Speed 14 mph    
Max Gust Speed -    
Visibility 10 miles    
Events      
Averages and records for this station are not official NWS values.
T = Trace of Precipitation, MM = Missing Value Source: NWS Daily Summary

Daily Weather History Graph

Daily Weather History Graph

Search for Another Location

Airport or City:

Trip Planner

Search our weather history database for the weather conditions in past years. The results will help you decide how hot, cold, wet, or windy it might be!

Date:

Astronomy

Aug. 20, 2014 Rise Set
Actual Time 5:54 AM EDT 7:31 PM EDT
Civil Twilight 5:25 AM EDT 8:01 PM EDT
Nautical Twilight 4:49 AM EDT 8:36 PM EDT
Astronomical Twilight 4:12 AM EDT 9:13 PM EDT
Moon 1:30 AM EDT (8/20) 4:15 PM EDT (8/20)
Length of Visible Light 14h 35m
Length of Day
13h 37m
Waning Crescent, 21% of the Moon is Illuminated
Aug 20
Waning Crescent
Aug 25
New
Sep 2
First Quarter
Sep 8
Full
Sep 15
Last Quarter

Hourly Weather History & Observations

Time (EDT) Temp. Dew Point Humidity Pressure Visibility Wind Dir Wind Speed Gust Speed Precip Events Conditions
12:53 AM 57.9 °F 55.0 °F 90% 29.97 in 10.0 mi ESE 3.5 mph - N/A   Clear
1:53 AM 57.9 °F 55.0 °F 90% 29.96 in 10.0 mi ESE 3.5 mph - N/A   Clear
2:53 AM 57.0 °F 55.0 °F 93% 29.96 in 10.0 mi Calm Calm - N/A   Clear
3:53 AM 55.9 °F 53.1 °F 90% 29.96 in 10.0 mi Calm Calm - N/A   Clear
4:53 AM 53.1 °F 51.1 °F 93% 29.97 in 10.0 mi Calm Calm - 0.01 in   Clear
5:53 AM 53.1 °F 51.1 °F 93% 29.98 in 10.0 mi North - - N/A   Clear
6:53 AM 60.1 °F 55.9 °F 86% 29.99 in 10.0 mi ENE 4.6 mph - N/A   Clear
7:53 AM 64.9 °F 54.0 °F 68% 30.00 in 10.0 mi ENE 5.8 mph - N/A   Clear
8:53 AM 69.1 °F 53.1 °F 57% 30.00 in 10.0 mi NE 5.8 mph - N/A   Clear
9:53 AM 70.0 °F 55.9 °F 61% 30.00 in 10.0 mi ENE 8.1 mph - N/A   Clear
10:53 AM 72.0 °F 55.9 °F 57% 30.02 in 10.0 mi ENE 10.4 mph - N/A   Clear
11:53 AM 72.0 °F 55.9 °F 57% 30.02 in 10.0 mi ENE 10.4 mph - N/A   Clear
12:53 PM 71.1 °F 57.9 °F 63% 30.03 in 10.0 mi East 11.5 mph - N/A   Clear
1:53 PM 72.0 °F 57.9 °F 61% 30.02 in 8.0 mi ENE 9.2 mph - N/A   Clear
2:53 PM 72.0 °F 57.9 °F 61% 30.01 in 10.0 mi NE 11.5 mph - N/A   Clear
3:53 PM 72.0 °F 57.0 °F 59% 30.01 in 10.0 mi NE 12.7 mph - N/A   Clear
4:53 PM 69.1 °F 59.0 °F 70% 30.01 in 10.0 mi NNE 13.8 mph - N/A   Scattered Clouds
5:53 PM 69.1 °F 60.1 °F 73% 30.01 in 10.0 mi NE 10.4 mph - N/A   Scattered Clouds
6:53 PM 66.9 °F 59.0 °F 76% 30.02 in 10.0 mi NE 9.2 mph - N/A   Mostly Cloudy
7:53 PM 63.0 °F 57.9 °F 84% 30.03 in 10.0 mi NE 6.9 mph - N/A   Clear
8:53 PM 63.0 °F 59.0 °F 87% 30.04 in 10.0 mi NNE 6.9 mph - N/A   Mostly Cloudy
9:39 PM 62.6 °F 60.8 °F 94% 30.03 in 10.0 mi NNE 8.1 mph - N/A   Mostly Cloudy
9:53 PM 63.0 °F 60.1 °F 90% 30.04 in 10.0 mi NE 8.1 mph - N/A   Scattered Clouds
10:08 PM 62.6 °F 60.8 °F 94% 30.03 in 10.0 mi NE 8.1 mph - N/A   Mostly Cloudy
10:19 PM 62.6 °F 60.8 °F 94% 30.03 in 10.0 mi NE 8.1 mph - N/A   Scattered Clouds
10:53 PM 63.0 °F 60.1 °F 90% 30.04 in 10.0 mi NE 8.1 mph - N/A   Scattered Clouds
11:53 PM 64.0 °F 60.1 °F 87% 30.03 in 10.0 mi NE 8.1 mph - N/A   Mostly Cloudy